| time (UTC) | temp F | wind direction | speed knots | gust knots | rain 1hr in | rain 24hr in | rain mn in | humidity % | barometer mb |
| 20260505073105 | 70 | 140 | 6.1 | 13.0 | 0.00 | 0.00 | 0.00 | 39 | 1014.6 |
| 20260505072605 | 70 | 128 | 10.4 | 14.8 | 0.00 | 0.00 | 0.00 | 39 | 1014.7 |
| 20260505072105 | 70 | 162 | 5.2 | 8.7 | 0.00 | 0.00 | 0.00 | 39 | 1014.6 |
| 20260505071606 | 70 | 98 | 4.3 | 13.0 | 0.00 | 0.00 | 0.00 | 39 | 1014.6 |
| 20260505071105 | 70 | 127 | 5.2 | 11.3 | 0.00 | 0.00 | 0.00 | 40 | 1014.6 |
| 20260505070605 | 70 | 120 | 5.2 | 11.3 | 0.00 | 0.00 | 0.00 | 40 | 1014.6 |
| 20260505070119 | 69 | 166 | 5.2 | 8.7 | 0.00 | 0.00 | 0.00 | 40 | 1014.9 |
| 20260505064605 | 69 | 211 | 3.5 | 8.7 | 0.00 | 0.00 | 0.00 | 41 | 1014.2 |
| 20260505064105 | 69 | 114 | 7.8 | 10.4 | 0.00 | 0.00 | 0.00 | 48 | 1014.4 |
| 20260505063605 | 70 | 148 | 4.3 | 7.0 | 0.00 | 0.00 | 0.00 | 48 | 1014.7 |
| 20260505062605 | 68 | 231 | 0.0 | 5.2 | 0.00 | 0.00 | 0.00 | 48 | 1014.9 |
| 20260505061606 | 68 | 248 | 1.7 | 2.6 | 0.00 | 0.00 | 0.00 | 55 | 1014.7 |
| 20260505061105 | 68 | 250 | 0.9 | 0.9 | 0.00 | 0.00 | 0.00 | 55 | 1014.9 |
| 20260505060605 | 67 | 233 | 0.9 | 1.7 | 0.00 | 0.00 | 0.00 | 55 | 1014.9 |
| 20260505060114 | 65 | 229 | 0.0 | 0.9 | 0.00 | 0.00 | 0.00 | 58 | 1014.9 |
| 20260505055605 | 65 | 245 | 1.7 | 1.7 | 0.00 | 0.00 | 0.00 | 59 | 1014.9 |
| 20260505055105 | 63 | 268 | 1.7 | 2.6 | 0.00 | 0.00 | 0.00 | 59 | 1014.9 |
| 20260505054605 | 63 | 278 | 1.7 | 2.6 | 0.00 | 0.00 | 0.00 | 62 | 1015.1 |
| 20260505053605 | 62 | 228 | 1.7 | 2.6 | 0.00 | 0.00 | 0.00 | 62 | 1015.0 |
| 20260505053105 | 61 | 266 | 0.9 | 2.6 | 0.00 | 0.00 | 0.00 | 61 | 1014.6 |
| 20260505052605 | 61 | 272 | 2.6 | 5.2 | 0.00 | 0.00 | 0.00 | 61 | 1014.9 |
| 20260505052105 | 64 | 257 | 0.9 | 1.7 | 0.00 | 0.00 | 0.00 | 59 | 1014.7 |
| 20260505051105 | 63 | 231 | 0.9 | 2.6 | 0.00 | 0.00 | 0.00 | 60 | 1014.9 |
| 20260505050114 | 63 | 172 | 1.7 | 7.0 | 0.00 | 0.00 | 0.00 | 60 | 1014.6 |
| 20260505041106 | 53 | 250 | 0.9 | 0.9 | 0.00 | 0.00 | 0.00 | 88 | 1014.9 |
| 20260505040606 | 53 | 247 | 0.9 | 1.7 | 0.00 | 0.00 | 0.00 | 87 | 1015.1 |
| 20260505035605 | 53 | 234 | 0.0 | 0.9 | 0.00 | 0.00 | 0.00 | 87 | 1015.2 |
| 20260505035105 | 54 | 247 | 0.0 | 1.7 | 0.00 | 0.00 | 0.00 | 87 | 1015.2 |
| 20260505034605 | 54 | 234 | 0.0 | 0.9 | 0.00 | 0.00 | 0.00 | 86 | 1015.2 |
| 20260505034106 | 54 | 218 | 0.9 | 1.7 | 0.00 | 0.00 | 0.00 | 88 | 1015.2 |
| 20260505033605 | 53 | 223 | 0.9 | 0.9 | 0.00 | 0.00 | 0.00 | 89 | 1015.2 |
| 20260505033105 | 53 | 242 | 0.0 | 0.9 | 0.00 | 0.00 | 0.00 | 88 | 1015.2 |
| 20260505032605 | 54 | 232 | 0.0 | 1.7 | 0.00 | 0.00 | 0.00 | 88 | 1015.2 |
| 20260505032105 | 54 | 252 | 1.7 | 1.7 | 0.00 | 0.00 | 0.00 | 88 | 1015.1 |
| 20260505031105 | 55 | 218 | 0.0 | 0.0 | 0.00 | 0.00 | 0.00 | 87 | 1015.2 |
| 20260505030605 | 55 | 218 | 0.0 | 0.0 | 0.00 | 0.00 | 0.00 | 87 | 1015.2 |
| 20260505030113 | 55 | 218 | 0.0 | 0.0 | 0.00 | 0.00 | 0.00 | 87 | 1015.2 |
| 20260505025605 | 54 | 218 | 0.0 | 1.7 | 0.00 | 0.00 | 0.00 | 88 | 1015.2 |
| 20260505025105 | 55 | 220 | 0.0 | 0.0 | 0.00 | 0.00 | 0.00 | 88 | 1015.5 |
| 20260505024605 | 55 | 220 | 0.0 | 0.0 | 0.00 | 0.00 | 0.00 | 88 | 1015.6 |
| 20260505024105 | 55 | 220 | 0.0 | 0.0 | 0.00 | 0.00 | 0.00 | 88 | 1015.3 |
| 20260505023605 | 55 | 223 | 0.0 | 0.9 | 0.00 | 0.00 | 0.00 | 89 | 1015.6 |
| 20260505023105 | 54 | 176 | 0.9 | 0.9 | 0.00 | 0.00 | 0.00 | 90 | 1015.6 |
| 20260505022605 | 54 | 227 | 0.0 | 0.0 | 0.00 | 0.00 | 0.00 | 90 | 1015.5 |
| 20260505021106 | 54 | 227 | 0.0 | 0.0 | 0.00 | 0.00 | 0.00 | 90 | 1015.7 |
| 20260505020604 | 54 | 227 | 0.0 | 0.0 | 0.00 | 0.00 | 0.00 | 89 | 1015.8 |
| 20260505020114 | 54 | 228 | 0.0 | 0.0 | 0.00 | 0.00 | 0.00 | 89 | 1015.6 |
| 20260505015105 | 55 | 227 | 0.0 | 0.0 | 0.00 | 0.00 | 0.00 | 89 | 1015.6 |
| 20260505014605 | 55 | 227 | 0.0 | 0.0 | 0.00 | 0.00 | 0.00 | 89 | 1015.6 |
| 20260505013106 | 55 | 246 | 0.0 | 0.0 | 0.00 | 0.00 | 0.00 | 88 | 1015.8 |
| 20260505012605 | 56 | 246 | 0.9 | 0.9 | 0.00 | 0.00 | 0.00 | 88 | 1015.6 |
| 20260505012104 | 56 | 243 | 0.0 | 1.7 | 0.00 | 0.00 | 0.00 | 87 | 1015.8 |
| 20260505011604 | 56 | 249 | 0.9 | 1.7 | 0.00 | 0.00 | 0.00 | 86 | 1015.9 |
| 20260505011105 | 56 | 243 | 0.0 | 0.9 | 0.00 | 0.00 | 0.00 | 86 | 1015.7 |
| 20260505010606 | 56 | 223 | 0.0 | 0.9 | 0.00 | 0.00 | 0.00 | 86 | 1015.9 |
| 20260505010113 | 56 | 222 | 0.0 | 1.7 | 0.00 | 0.00 | 0.00 | 87 | 1015.9 |
| 20260505005105 | 55 | 215 | 0.0 | 0.9 | 0.00 | 0.00 | 0.00 | 87 | 1015.9 |
| 20260505004605 | 55 | 215 | 0.0 | 0.0 | 0.00 | 0.00 | 0.00 | 87 | 1015.9 |
| 20260505004105 | 55 | 215 | 0.0 | 0.0 | 0.00 | 0.00 | 0.00 | 87 | 1015.9 |
| 20260505003605 | 55 | 215 | 0.0 | 1.7 | 0.00 | 0.00 | 0.00 | 88 | 1016.0 |
| 20260505002605 | 55 | 219 | 0.9 | 0.9 | 0.00 | 0.00 | 0.00 | 88 | 1016.3 |
| 20260505001605 | 55 | 227 | 0.0 | 0.0 | 0.00 | 0.00 | 0.00 | 88 | 1016.3 |
| 20260505000605 | 55 | 231 | 0.0 | 0.0 | 0.00 | 0.00 | 0.00 | 88 | 1016.1 |
| 20260504235605 | 55 | 240 | 0.0 | 1.7 | 0.00 | 0.00 | 0.00 | 88 | 1016.1 |
| 20260504234606 | 56 | 235 | 0.0 | 0.0 | 0.00 | 0.00 | 0.00 | 87 | 1016.3 |
| 20260504234105 | 57 | 240 | 0.0 | 0.0 | 0.00 | 0.00 | 0.00 | 87 | 1016.1 |
| 20260504233605 | 57 | 241 | 0.0 | 0.9 | 0.00 | 0.00 | 0.00 | 87 | 1016.5 |
| 20260504233104 | 57 | 209 | 0.9 | 0.9 | 0.00 | 0.00 | 0.00 | 87 | 1016.4 |
| 20260504232605 | 57 | 220 | 0.0 | 0.9 | 0.00 | 0.00 | 0.00 | 88 | 1016.1 |
| 20260504232104 | 57 | 216 | 0.0 | 0.9 | 0.00 | 0.00 | 0.00 | 88 | 1016.6 |
| 20260504231605 | 58 | 218 | 0.0 | 0.9 | 0.00 | 0.00 | 0.00 | 88 | 1016.3 |
| 20260504231105 | 58 | 218 | 0.0 | 0.9 | 0.00 | 0.00 | 0.00 | 88 | 1016.4 |
| 20260504230605 | 58 | 218 | 0.0 | 0.9 | 0.00 | 0.00 | 0.00 | 87 | 1016.3 |
| 20260504230113 | 58 | 219 | 0.0 | 0.0 | 0.00 | 0.00 | 0.00 | 87 | 1016.3 |
| 20260504225606 | 59 | 218 | 0.0 | 0.0 | 0.00 | 0.00 | 0.00 | 87 | 1016.3 |
| 20260504225105 | 59 | 218 | 0.0 | 0.9 | 0.00 | 0.00 | 0.00 | 88 | 1016.4 |
| 20260504224105 | 57 | 213 | 0.0 | 0.9 | 0.00 | 0.00 | 0.00 | 89 | 1016.5 |
| 20260504223105 | 58 | 214 | 0.0 | 0.0 | 0.00 | 0.00 | 0.00 | 88 | 1016.4 |
| 20260504222606 | 58 | 213 | 0.0 | 0.9 | 0.00 | 0.00 | 0.00 | 89 | 1016.3 |
| 20260504221605 | 58 | 218 | 0.0 | 0.0 | 0.00 | 0.00 | 0.00 | 88 | 1016.6 |
| 20260504221105 | 58 | 219 | 0.0 | 0.0 | 0.00 | 0.00 | 0.00 | 88 | 1016.6 |
| 20260504215606 | 59 | 221 | 0.0 | 0.9 | 0.00 | 0.00 | 0.00 | 89 | 1016.6 |
| 20260504215105 | 58 | 229 | 0.0 | 0.0 | 0.00 | 0.00 | 0.00 | 89 | 1016.6 |
| 20260504214605 | 58 | 231 | 0.0 | 0.0 | 0.00 | 0.00 | 0.00 | 88 | 1016.6 |
| 20260504214105 | 58 | 223 | 0.0 | 0.0 | 0.00 | 0.00 | 0.00 | 88 | 1016.6 |
| 20260504213105 | 59 | 222 | 0.0 | 0.0 | 0.00 | 0.00 | 0.00 | 87 | 1016.6 |
| 20260504212605 | 59 | 223 | 0.0 | 0.0 | 0.00 | 0.00 | 0.00 | 87 | 1016.3 |
| 20260504212105 | 60 | 221 | 0.0 | 0.0 | 0.00 | 0.00 | 0.00 | 87 | 1016.5 |
| 20260504211606 | 60 | 227 | 0.0 | 0.0 | 0.00 | 0.00 | 0.00 | 87 | 1016.5 |
| 20260504211105 | 60 | 220 | 0.0 | 1.7 | 0.00 | 0.00 | 0.00 | 88 | 1016.6 |
| 20260504210605 | 59 | 158 | 1.7 | 2.6 | 0.00 | 0.00 | 0.00 | 88 | 1016.4 |
| 20260504210114 | 59 | 200 | 0.0 | 0.9 | 0.00 | 0.00 | 0.00 | 89 | 1016.3 |
| 20260504205606 | 59 | 245 | 0.0 | 0.0 | 0.00 | 0.00 | 0.00 | 90 | 1016.6 |
| 20260504205105 | 60 | 245 | 0.0 | 0.0 | 0.00 | 0.00 | 0.00 | 91 | 1016.6 |
| 20260504204106 | 60 | 245 | 0.0 | 0.0 | 0.00 | 0.00 | 0.00 | 91 | 1016.6 |
| 20260504203605 | 60 | 245 | 0.0 | 0.0 | 0.00 | 0.00 | 0.00 | 91 | 1016.4 |
| 20260504203105 | 60 | 245 | 0.0 | 0.0 | 0.00 | 0.00 | 0.00 | 91 | 1016.5 |
| 20260504202605 | 60 | 245 | 0.0 | 0.0 | 0.00 | 0.00 | 0.00 | 92 | 1016.6 |
| 20260504202105 | 60 | 245 | 0.0 | 0.0 | 0.00 | 0.00 | 0.00 | 92 | 1016.6 |
| 20260504201605 | 61 | 245 | 0.0 | 0.0 | 0.00 | 0.00 | 0.00 | 92 | 1016.6 |
| 20260504201105 | 61 | 245 | 0.0 | 0.0 | 0.00 | 0.00 | 0.00 | 92 | 1016.9 |
| 20260504200114 | 61 | 245 | 0.0 | 0.9 | 0.00 | 0.00 | 0.00 | 92 | 1016.9 |
| 20260504195605 | 61 | 245 | 0.0 | 0.9 | 0.00 | 0.00 | 0.00 | 92 | 1016.9 |
| 20260504195105 | 62 | 245 | 0.0 | 0.9 | 0.00 | 0.00 | 0.00 | 91 | 1016.9 |
| 20260504194108 | 62 | 247 | 0.9 | 1.7 | 0.00 | 0.00 | 0.00 | 90 | 1016.9 |
| 20260504193605 | 62 | 261 | 1.7 | 1.7 | 0.00 | 0.00 | 0.00 | 89 | 1016.9 |
| 20260504193105 | 62 | 247 | 0.9 | 1.7 | 0.00 | 0.00 | 0.00 | 88 | 1016.7 |
| 20260504192605 | 62 | 219 | 0.0 | 0.0 | 0.00 | 0.00 | 0.00 | 88 | 1016.6 |
| 20260504191605 | 62 | 218 | 0.0 | 0.0 | 0.00 | 0.00 | 0.00 | 88 | 1016.9 |
| 20260504191106 | 62 | 216 | 0.9 | 0.9 | 0.00 | 0.00 | 0.00 | 88 | 1016.7 |
| 20260504190114 | 62 | 229 | 0.0 | 0.9 | 0.00 | 0.00 | 0.00 | 88 | 1016.9 |
| 20260504185606 | 62 | 234 | 0.0 | 0.9 | 0.00 | 0.00 | 0.00 | 87 | 1016.9 |
| 20260504185106 | 62 | 169 | 0.9 | 1.7 | 0.00 | 0.00 | 0.00 | 87 | 1016.9 |
| 20260504184605 | 63 | 219 | 0.0 | 0.0 | 0.00 | 0.00 | 0.00 | 87 | 1016.9 |
| 20260504184105 | 63 | 221 | 0.0 | 0.9 | 0.00 | 0.00 | 0.00 | 87 | 1016.8 |
| 20260504183606 | 63 | 222 | 0.9 | 0.9 | 0.00 | 0.00 | 0.00 | 86 | 1016.8 |
| 20260504183105 | 63 | 223 | 0.9 | 0.9 | 0.00 | 0.00 | 0.00 | 85 | 1016.9 |
| 20260504182605 | 63 | 230 | 0.9 | 0.9 | 0.00 | 0.00 | 0.00 | 85 | 1016.7 |
| 20260504182105 | 63 | 231 | 0.0 | 1.7 | 0.00 | 0.00 | 0.00 | 84 | 1016.8 |
| 20260504181605 | 63 | 184 | 0.9 | 1.7 | 0.00 | 0.00 | 0.00 | 83 | 1016.9 |
| 20260504181105 | 64 | 209 | 0.9 | 2.6 | 0.00 | 0.00 | 0.00 | 82 | 1016.8 |
| 20260504180114 | 64 | 216 | 0.9 | 2.6 | 0.00 | 0.00 | 0.00 | 79 | 1016.9 |
| 20260504175605 | 64 | 153 | 1.7 | 2.6 | 0.00 | 0.00 | 0.00 | 78 | 1016.6 |
| 20260504175106 | 65 | 221 | 0.9 | 1.7 | 0.00 | 0.00 | 0.00 | 77 | 1016.6 |
| 20260504174605 | 65 | 214 | 0.9 | 0.9 | 0.00 | 0.00 | 0.00 | 76 | 1016.6 |
| 20260504174106 | 65 | 228 | 0.0 | 0.9 | 0.00 | 0.00 | 0.00 | 76 | 1016.6 |
| 20260504173605 | 65 | 227 | 0.9 | 0.9 | 0.00 | 0.00 | 0.00 | 76 | 1016.6 |
| 20260504173105 | 66 | 229 | 0.0 | 0.9 | 0.00 | 0.00 | 0.00 | 74 | 1016.6 |
| 20260504172605 | 66 | 230 | 0.9 | 0.9 | 0.00 | 0.00 | 0.00 | 73 | 1016.6 |
| 20260504171606 | 67 | 224 | 0.9 | 1.7 | 0.00 | 0.00 | 0.00 | 70 | 1016.7 |
| 20260504171105 | 67 | 226 | 0.9 | 1.7 | 0.00 | 0.00 | 0.00 | 70 | 1016.8 |
| 20260504170606 | 67 | 212 | 0.9 | 2.6 | 0.00 | 0.00 | 0.00 | 69 | 1016.6 |
| 20260504170114 | 67 | 181 | 1.7 | 2.6 | 0.00 | 0.00 | 0.00 | 62 | 1016.6 |
| 20260504160113 | 70 | 168 | 1.7 | 4.3 | 0.00 | 0.00 | 0.00 | 63 | 1017.0 |
| 20260504151107 | 70 | 258 | 1.7 | 2.6 | 0.00 | 0.00 | 0.00 | 71 | 1017.4 |
| 20260504150605 | 70 | 202 | 1.7 | 4.3 | 0.00 | 0.00 | 0.00 | 71 | 1017.8 |
| 20260504150114 | 69 | 200 | 1.7 | 5.2 | 0.00 | 0.00 | 0.00 | 71 | 1017.6 |
| 20260504141105 | 70 | 185 | 1.7 | 8.7 | 0.00 | 0.00 | 0.00 | 65 | 1018.1 |
| 20260504140605 | 70 | 260 | 2.6 | 7.8 | 0.00 | 0.00 | 0.00 | 66 | 1018.0 |
| 20260504140114 | 70 | 246 | 2.6 | 7.0 | 0.00 | 0.00 | 0.00 | 67 | 1018.1 |
| 20260504130605 | 70 | 50 | 4.3 | 10.4 | 0.00 | 0.00 | 0.00 | 61 | 1018.4 |
| 20260504130114 | 69 | 151 | 6.1 | 13.9 | 0.00 | 0.00 | 0.00 | 62 | 1018.6 |
| 20260504110605 | 69 | 150 | 5.2 | 7.8 | 0.00 | 0.00 | 0.00 | 65 | 1019.0 |
| 20260504110115 | 69 | 228 | 5.2 | 10.4 | 0.00 | 0.00 | 0.00 | 65 | 1019.0 |
| 20260504100605 | 70 | 12 | 2.6 | 5.2 | 0.00 | 0.00 | 0.00 | 65 | 1019.1 |
| 20260504090114 | 71 | 188 | 5.2 | 10.4 | 0.00 | 0.00 | 0.00 | 59 | 1019.0 |
| 20260504081606 | 71 | 172 | 5.2 | 8.7 | 0.00 | 0.00 | 0.00 | 53 | 1019.2 |
| 20260504081106 | 72 | 120 | 2.6 | 6.1 | 0.00 | 0.00 | 0.00 | 53 | 1019.0 |
| 20260504080114 | 71 | 217 | 0.9 | 1.7 | 0.00 | 0.00 | 0.00 | 57 | 1019.0 |